Change the Weather History Date:

Saturday, April 14, 2012

  Actual Average Record
Temperature  
Mean Temperature 47 °F -  
Max Temperature 57 °F 46 °F 75 °F (2003)
Min Temperature 37 °F 25 °F 1 °F (2013)
Degree Days  
Heating Degree Days 18    
Moisture  
Dew Point 41 °F    
Average Humidity 78    
Maximum Humidity 100    
Minimum Humidity 51    
Precipitation  
Precipitation 0.14 in - - ()
Sea Level Pressure  
Sea Level Pressure 29.66 in    
Wind  
Wind Speed 11 mph (SW)    
Max Wind Speed 21 mph    
Max Gust Speed 28 mph    
Visibility 9 miles    
Events Rain    
Averages and records for this station are not official NWS values.
T = Trace of Precipitation, MM = Missing Value Source: NWS Daily Summary

Daily Weather History Graph

Daily Weather History Graph

Search for Another Location

Airport or City:

Trip Planner

Search our weather history database for the weather conditions in past years. The results will help you decide how hot, cold, wet, or windy it might be!

Date:

Astronomy

Apr. 14, 2012 Rise Set
Actual Time 6:19 AM CDT 7:56 PM CDT
Civil Twilight 5:46 AM CDT 8:29 PM CDT
Nautical Twilight 5:07 AM CDT 9:09 PM CDT
Astronomical Twilight 4:24 AM CDT 9:52 PM CDT
Moon 3:10 AM CDT (4/14) 1:23 PM CDT (4/14)
Length of Visible Light 14h 42m
Length of Day
13h 37m
Last Quarter, 37% of the Moon is Illuminated
Apr 14
Last Quarter
Apr 21
New
Apr 29
First Quarter
May 5
Full
May 12
Last Quarter

Hourly Weather History & Observations

Time (CDT) Temp. Windchill Dew Point Humidity Pressure Visibility Wind Dir Wind Speed Gust Speed Precip Events Conditions
12:13 AM 44.6 °F 37.4 °F 39.2 °F 81% 29.67 in 10.0 mi SE 16.1 mph 21.9 mph N/A Rain Rain
12:32 AM 44.6 °F 37.8 °F 39.2 °F 81% 29.67 in 10.0 mi SE 15.0 mph 21.9 mph N/A Rain Light Rain
12:53 AM 44.6 °F 38.4 °F 39.2 °F 81% 29.67 in 10.0 mi SE 12.7 mph 19.6 mph 0.03 in Rain Rain
1:13 AM 44.6 °F 38.4 °F 39.2 °F 81% 29.66 in 10.0 mi SE 12.7 mph 17.3 mph 0.03 in Rain Light Rain
1:32 AM 44.6 °F 39.2 °F 39.2 °F 81% 29.66 in 10.0 mi SSE 10.4 mph - 0.05 in Rain Rain
1:53 AM 44.6 °F 39.2 °F 39.2 °F 81% 29.66 in 10.0 mi SE 10.4 mph - 0.07 in Rain Light Rain
2:13 AM 44.6 °F 39.2 °F 41.0 °F 87% 29.65 in 10.0 mi SE 10.4 mph - N/A Rain Rain
2:32 AM 44.6 °F 38.1 °F 41.0 °F 87% 29.63 in 10.0 mi SE 13.8 mph 19.6 mph 0.01 in Rain Rain
2:53 AM 42.8 °F 36.6 °F 41.0 °F 93% 29.63 in 7.0 mi SE 11.5 mph - 0.01 in   Drizzle
3:12 AM 42.8 °F 37.0 °F 41.0 °F 93% 29.63 in 10.0 mi SSE 10.4 mph - 0.01 in Rain Light Rain
3:32 AM 42.8 °F 36.6 °F 41.0 °F 93% 29.63 in 7.0 mi SSE 11.5 mph - 0.02 in Rain Light Rain
3:53 AM 42.8 °F 37.0 °F 41.0 °F 93% 29.62 in 7.0 mi SSE 10.4 mph - 0.03 in Rain Light Rain
4:12 AM 44.6 °F 39.7 °F 42.8 °F 93% 29.61 in 7.0 mi SSE 9.2 mph 17.3 mph N/A   Light Drizzle
4:32 AM 44.6 °F 40.7 °F 42.8 °F 93% 29.62 in 7.0 mi South 6.9 mph - N/A   Overcast
4:53 AM 44.6 °F 39.7 °F 42.8 °F 93% 29.61 in 7.0 mi SSE 9.2 mph - N/A   Overcast
5:13 AM 44.6 °F 40.2 °F 42.8 °F 93% 29.61 in 7.0 mi South 8.1 mph - N/A   Overcast
5:32 AM 44.6 °F 40.7 °F 42.8 °F 93% 29.61 in 7.0 mi South 6.9 mph - N/A   Overcast
5:53 AM 44.6 °F 41.4 °F 44.6 °F 100% 29.60 in 5.0 mi South 5.8 mph - N/A   Drizzle
6:12 AM 46.4 °F 44.3 °F 44.6 °F 93% 29.60 in 4.0 mi South 4.6 mph - N/A   Drizzle
6:32 AM 46.4 °F 42.9 °F 44.6 °F 93% 29.59 in 7.0 mi SSW 6.9 mph - N/A   Overcast
6:52 AM 46.4 °F 42.9 °F 44.6 °F 93% 29.60 in 7.0 mi SSW 6.9 mph - N/A   Overcast
7:11 AM 46.4 °F 41.9 °F 44.6 °F 93% 29.60 in 5.0 mi SW 9.2 mph 16.1 mph N/A   Drizzle
7:32 AM 46.4 °F 41.9 °F 44.6 °F 93% 29.61 in 10.0 mi SW 9.2 mph - N/A Rain Light Rain
7:52 AM 46.4 °F 41.5 °F 44.6 °F 93% 29.61 in 5.0 mi SW 10.4 mph 17.3 mph N/A Rain Rain
8:13 AM 46.4 °F 41.9 °F 44.6 °F 93% 29.61 in 10.0 mi SW 9.2 mph 16.1 mph N/A   Overcast
8:32 AM 46.4 °F 41.9 °F 44.6 °F 93% 29.61 in 10.0 mi SW 9.2 mph - N/A   Overcast
8:52 AM 46.4 °F 42.4 °F 44.6 °F 93% 29.60 in 10.0 mi SW 8.1 mph - N/A   Overcast
9:12 AM 46.4 °F 41.9 °F 42.8 °F 87% 29.60 in 10.0 mi WSW 9.2 mph 19.6 mph N/A   Overcast
9:32 AM 48.2 °F - 44.6 °F 87% 29.60 in 10.0 mi SW 9.2 mph 16.1 mph N/A   Overcast
9:53 AM 48.2 °F - 42.8 °F 82% 29.61 in 10.0 mi WSW 11.5 mph 17.3 mph N/A   Overcast
10:12 AM 48.2 °F - 42.8 °F 82% 29.62 in 10.0 mi SW 13.8 mph 19.6 mph N/A   Overcast
10:32 AM 48.2 °F - 42.8 °F 82% 29.63 in 10.0 mi WSW 10.4 mph 18.4 mph N/A   Overcast
10:53 AM 48.2 °F - 42.8 °F 82% 29.64 in 10.0 mi SW 13.8 mph 21.9 mph N/A   Overcast
11:12 AM 48.2 °F - 42.8 °F 82% 29.65 in 10.0 mi WSW 8.1 mph 17.3 mph N/A   Overcast
11:32 AM 48.2 °F - 41.0 °F 76% 29.66 in 10.0 mi WSW 11.5 mph 21.9 mph N/A   Overcast
11:53 AM 48.2 °F - 41.0 °F 76% 29.66 in 10.0 mi WSW 17.3 mph 25.3 mph N/A   Overcast
12:13 PM 50.0 °F - 42.8 °F 76% 29.67 in 10.0 mi WSW 12.7 mph 21.9 mph N/A   Overcast
12:32 PM 51.8 °F - 41.0 °F 67% 29.67 in 10.0 mi West 16.1 mph 23.0 mph N/A   Overcast
12:53 PM 51.8 °F - 41.0 °F 67% 29.66 in 10.0 mi West 16.1 mph 25.3 mph N/A   Overcast
1:13 PM 53.6 °F - 41.0 °F 62% 29.66 in 10.0 mi West 15.0 mph 23.0 mph N/A   Overcast
1:32 PM 55.4 °F - 39.2 °F 54% 29.66 in 10.0 mi West 19.6 mph 26.5 mph N/A   Mostly Cloudy
1:53 PM 55.4 °F - 39.2 °F 54% 29.67 in 10.0 mi West 16.1 mph 25.3 mph N/A   Mostly Cloudy
2:12 PM 53.6 °F - 39.2 °F 58% 29.68 in 10.0 mi West 11.5 mph 21.9 mph N/A   Mostly Cloudy
2:33 PM 53.6 °F - 39.2 °F 58% 29.68 in 10.0 mi West 17.3 mph 23.0 mph N/A   Overcast
2:53 PM 53.6 °F - 39.2 °F 58% 29.68 in 10.0 mi West 18.4 mph 25.3 mph N/A   Overcast
3:12 PM 55.4 °F - 39.2 °F 54% 29.67 in 10.0 mi West 11.5 mph 21.9 mph N/A   Overcast
3:32 PM 57.2 °F - 39.2 °F 51% 29.67 in 10.0 mi West 20.7 mph 26.5 mph N/A   Mostly Cloudy
3:53 PM 53.6 °F - 39.2 °F 58% 29.68 in 10.0 mi West 15.0 mph 25.3 mph N/A   Overcast
4:12 PM 55.4 °F - 39.2 °F 54% 29.68 in 10.0 mi West 12.7 mph 24.2 mph N/A   Overcast
4:32 PM 57.2 °F - 39.2 °F 51% 29.68 in 10.0 mi WNW 16.1 mph 27.6 mph N/A   Mostly Cloudy
4:52 PM 57.2 °F - 39.2 °F 51% 29.68 in 10.0 mi WNW 13.8 mph 23.0 mph N/A   Scattered Clouds
5:13 PM 57.2 °F - 39.2 °F 51% 29.68 in 10.0 mi WNW 16.1 mph 23.0 mph N/A   Scattered Clouds
5:32 PM 57.2 °F - 39.2 °F 51% 29.68 in 10.0 mi NW 12.7 mph 21.9 mph N/A   Clear
5:52 PM 57.2 °F - 39.2 °F 51% 29.69 in 10.0 mi WNW 12.7 mph 17.3 mph N/A   Clear
6:13 PM 57.2 °F - 41.0 °F 55% 29.69 in 10.0 mi WNW 9.2 mph - N/A   Clear
6:32 PM 55.4 °F - 41.0 °F 58% 29.70 in 10.0 mi NW 9.2 mph 16.1 mph N/A   Clear
6:53 PM 55.4 °F - 41.0 °F 58% 29.70 in 10.0 mi WNW 5.8 mph - N/A   Clear
7:12 PM 55.4 °F - 41.0 °F 58% 29.70 in 10.0 mi NW 4.6 mph - N/A   Clear
7:33 PM 53.6 °F - 42.8 °F 67% 29.70 in 10.0 mi NNW 3.5 mph - N/A   Clear
7:52 PM 51.8 °F - 42.8 °F 71% 29.70 in 10.0 mi Calm Calm - N/A   Clear
8:13 PM 51.8 °F - 42.8 °F 71% 29.71 in 10.0 mi Calm Calm - N/A   Clear
8:33 PM 46.4 °F - 41.0 °F 81% 29.72 in 10.0 mi Calm Calm - N/A   Clear
8:52 PM 44.6 °F - 41.0 °F 87% 29.73 in 10.0 mi Calm Calm - N/A   Clear
9:13 PM 42.8 °F - 39.2 °F 87% 29.74 in 10.0 mi Calm Calm - N/A   Clear
9:32 PM 42.8 °F - 39.2 °F 87% 29.74 in 10.0 mi Calm Calm - N/A   Clear
9:52 PM 39.2 °F - 37.4 °F 93% 29.73 in 10.0 mi Calm Calm - N/A   Clear
10:13 PM 39.2 °F - 37.4 °F 93% 29.74 in 10.0 mi Calm Calm - N/A   Clear
10:32 PM 39.2 °F - 37.4 °F 93% 29.74 in 10.0 mi Calm Calm - N/A   Clear
10:52 PM 37.4 °F - 35.6 °F 93% 29.72 in 10.0 mi Calm Calm - N/A   Clear
11:13 PM 37.4 °F - 35.6 °F 93% 29.72 in 10.0 mi Calm Calm - N/A   Clear
11:32 PM 37.4 °F - 35.6 °F 93% 29.72 in 10.0 mi Calm Calm - N/A   Clear
11:53 PM 39.2 °F - 37.4 °F 93% 29.72 in 10.0 mi Calm Calm - N/A   Clear